TimeMST,TemperatureF,Dew PointF,Humidity,Sea Level PressureIn,VisibilityMPH,Wind Direction,Wind SpeedMPH,Gust SpeedMPH,PrecipitationIn,Events,Conditions,WindDirDegrees,DateUTC
12:53 AM,26.1,16.0,66,29.82,10.0,North,12.7,-,N/A,,Overcast,350,2012-12-19 07:53:00
1:50 AM,24.8,19.4,80,29.77,2.5,North,9.2,-,0.00,Snow,Light Snow,350,2012-12-19 08:50:00
1:53 AM,24.1,19.0,81,29.83,2.0,North,8.1,-,0.00,Snow,Light Snow,350,2012-12-19 08:53:00
2:37 AM,23.0,19.4,86,29.78,1.8,NNW,8.1,-,0.00,Snow,Light Snow,330,2012-12-19 09:37:00
2:53 AM,23.0,19.9,88,29.85,2.0,NNW,9.2,-,0.00,Snow,Light Snow,340,2012-12-19 09:53:00
3:06 AM,23.0,19.4,86,29.78,1.8,NNW,6.9,-,0.00,Snow,Light Snow,340,2012-12-19 10:06:00
3:26 AM,23.0,21.2,93,29.78,1.2,North,3.5,-,0.01,Snow,Light Snow,350,2012-12-19 10:26:00
3:53 AM,23.0,21.0,92,29.86,1.8,North,3.5,-,0.01,Snow,Light Snow,350,2012-12-19 10:53:00
4:05 AM,21.2,19.4,93,29.79,1.8,North,8.1,-,0.01,Snow,Light Snow,350,2012-12-19 11:05:00
4:20 AM,21.2,19.4,93,29.79,2.5,North,10.4,-,0.01,Snow,Light Snow,360,2012-12-19 11:20:00
4:30 AM,21.2,19.4,93,29.79,3.0,North,9.2,-,0.01,Snow,Light Snow,360,2012-12-19 11:30:00
4:39 AM,21.2,19.4,93,29.79,2.0,North,9.2,-,0.01,Snow,Light Snow,360,2012-12-19 11:39:00
4:46 AM,21.2,19.4,93,29.80,1.8,North,5.8,-,0.01,Snow,Light Snow,350,2012-12-19 11:46:00
4:53 AM,21.9,19.0,89,29.89,2.0,North,6.9,-,0.01,Snow,Light Snow,350,2012-12-19 11:53:00
5:09 AM,21.2,19.4,93,29.81,1.5,North,8.1,-,0.00,Snow,Light Snow,350,2012-12-19 12:09:00
5:53 AM,21.0,18.0,88,29.94,1.5,NNW,6.9,-,0.01,Snow,Light Snow,340,2012-12-19 12:53:00
6:11 AM,21.2,17.6,86,29.85,2.5,North,8.1,-,0.01,Snow,Light Snow,350,2012-12-19 13:11:00
6:28 AM,21.2,17.6,86,29.84,3.0,North,6.9,-,0.01,Snow,Light Snow,350,2012-12-19 13:28:00
6:36 AM,21.2,17.6,86,29.84,5.0,North,8.1,-,0.01,Snow,Light Snow,360,2012-12-19 13:36:00
6:53 AM,21.0,17.1,85,29.93,7.0,North,6.9,-,0.01,Snow,Light Snow,360,2012-12-19 13:53:00
7:36 AM,21.2,15.8,80,29.89,2.5,North,9.2,-,0.00,Snow,Light Snow,350,2012-12-19 14:36:00
7:53 AM,19.9,16.0,85,30.00,1.8,NNW,8.1,-,0.00,Snow,Light Snow,340,2012-12-19 14:53:00
8:50 AM,21.2,15.8,80,29.90,3.0,North,11.5,-,0.00,Snow,Light Snow,350,2012-12-19 15:50:00
8:51 AM,21.0,16.0,81,30.01,3.0,North,11.5,-,0.00,Snow,Light Snow,350,2012-12-19 15:51:00
9:05 AM,21.2,15.8,80,29.91,4.0,North,10.4,20.7,0.00,Snow,Light Snow,350,2012-12-19 16:05:00
9:53 AM,21.9,15.1,75,30.03,10.0,North,8.1,-,0.00,,Overcast,350,2012-12-19 16:53:00
10:53 AM,24.1,12.0,60,30.01,10.0,NW,8.1,-,N/A,,Overcast,320,2012-12-19 17:53:00
11:53 AM,25.0,8.1,49,30.01,10.0,NNW,12.7,19.6,N/A,,Overcast,340,2012-12-19 18:53:00
12:53 PM,25.0,8.1,49,30.01,10.0,NNW,17.3,25.3,N/A,,Mostly Cloudy,340,2012-12-19 19:53:00
1:53 PM,26.1,7.0,44,30.03,10.0,NNW,15.0,24.2,0.00,,Clear,340,2012-12-19 20:53:00
2:53 PM,27.0,6.1,41,30.06,10.0,NNW,17.3,-,N/A,,Clear,340,2012-12-19 21:53:00
3:53 PM,25.0,5.0,43,30.09,10.0,NNW,15.0,-,N/A,,Clear,330,2012-12-19 22:53:00
4:53 PM,21.0,3.9,48,30.14,10.0,NW,13.8,-,N/A,,Clear,320,2012-12-19 23:53:00
5:53 PM,14.0,1.0,56,30.19,10.0,NNW,10.4,-,N/A,,Clear,340,2012-12-20 00:53:00
6:53 PM,15.1,1.0,54,30.21,10.0,NW,9.2,-,N/A,,Clear,310,2012-12-20 01:53:00
7:53 PM,10.9,-0.0,61,30.24,10.0,WNW,9.2,-,N/A,,Clear,300,2012-12-20 02:53:00
8:53 PM,9.0,-0.9,64,30.26,10.0,West,5.8,-,N/A,,Clear,280,2012-12-20 03:53:00
9:53 PM,5.0,-2.9,70,30.28,10.0,West,6.9,-,N/A,,Clear,270,2012-12-20 04:53:00
10:53 PM,5.0,-2.9,70,30.28,10.0,West,5.8,-,N/A,,Clear,260,2012-12-20 05:53:00
11:53 PM,8.1,-0.9,67,30.27,10.0,WNW,4.6,-,N/A,,Clear,290,2012-12-20 06:53:00